Weather History for Perry, IA

Change the Weather History Date:

Saturday, May 18, 2013

  Actual Average Record
Temperature  
Mean Temperature 72 °F -  
Max Temperature 86 °F 73 °F 93 °F (2012)
Min Temperature 57 °F 51 °F 38 °F (1976)
Cooling Degree Days 6    
Growing Degree Days 22 (Base 50)    
Moisture  
Dew Point 57 °F    
Average Humidity 61    
Maximum Humidity 91    
Minimum Humidity 34    
Precipitation  
Precipitation 0.00 in - - ()
Sea Level Pressure  
Sea Level Pressure 29.88 in    
Wind  
Wind Speed 8 mph (SSE)    
Max Wind Speed 20 mph    
Max Gust Speed 25 mph    
Visibility 10 miles    
Events      
Averages and records for this station are not official NWS values.
T = Trace of Precipitation, MM = Missing Value Source: NWS Daily Summary

Daily Weather History Graph

Daily Weather History Graph

Search for Another Location

Airport:

Trip Planner

Search our weather history database for the weather conditions in past years. The results will help you decide how hot, cold, wet, or windy it might be!

Date:

Astronomy

May. 18, 2013 Rise Set
Actual Time 5:53 AM CDT 8:33 PM CDT
Civil Twilight 5:21 AM CDT 9:05 PM CDT
Nautical Twilight 4:41 AM CDT 9:45 PM CDT
Astronomical Twilight 3:55 AM CDT 10:31 PM CDT
Moon 1:31 PM CDT (5/18) 1:52 AM CDT (5/18)
Length of Visible Light 15h 44m
Length of Day
14h 39m
First Quarter, 55% of the Moon is Illuminated
May 18
First Quarter
May 24
Full
May 31
Last Quarter
Jun 8
New
Jun 16
First Quarter

Hourly Weather History & Observations

Time (CDT) Temp. Heat Index Dew Point Humidity Pressure Visibility Wind Dir Wind Speed Gust Speed Precip Events Conditions
12:15 AM 63.7 °F - 57.0 °F 79% 29.94 in 10.0 mi SSE 5.8 mph - N/A   Clear
12:35 AM 63.0 °F - 56.7 °F 80% 29.93 in 10.0 mi SSE 5.8 mph - N/A   Clear
12:55 AM 62.6 °F - 56.5 °F 80% 29.94 in 10.0 mi SSE 4.6 mph - N/A   Clear
1:15 AM 62.4 °F - 56.7 °F 81% 29.94 in 10.0 mi SSE 4.6 mph - N/A   Clear
1:35 AM 61.9 °F - 56.3 °F 82% 29.93 in 10.0 mi SE 8.1 mph - N/A   Clear
1:55 AM 61.7 °F - 56.3 °F 82% 29.94 in 10.0 mi SSE 5.8 mph - N/A   Clear
2:15 AM 61.0 °F - 55.4 °F 82% 29.94 in 10.0 mi SSE 4.6 mph - N/A   Clear
2:35 AM 60.4 °F - 55.4 °F 83% 29.93 in 10.0 mi SSE 4.6 mph - N/A   Clear
2:55 AM 60.3 °F - 55.8 °F 85% 29.93 in 10.0 mi SE 6.9 mph - N/A   Clear
3:15 AM 59.9 °F - 55.6 °F 86% 29.93 in 10.0 mi South 4.6 mph - N/A   Clear
3:35 AM 59.9 °F - 55.8 °F 86% 29.93 in 10.0 mi South 4.6 mph - N/A   Clear
3:55 AM 59.0 °F - 55.0 °F 87% 29.92 in 10.0 mi SE 5.8 mph - N/A   Clear
4:15 AM 58.5 °F - 54.5 °F 87% 29.92 in 10.0 mi SSE 6.9 mph - N/A   Clear
4:35 AM 57.9 °F - 54.5 °F 88% 29.92 in 7.0 mi SE 5.8 mph - N/A   Clear
4:55 AM 57.9 °F - 54.9 °F 90% 29.92 in 7.0 mi SSE 5.8 mph - N/A   Clear
5:15 AM 57.4 °F - 54.3 °F 90% 29.92 in 7.0 mi SSE 3.5 mph - N/A   Clear
5:35 AM 58.1 °F - 55.0 °F 90% 29.93 in 7.0 mi SSE 3.5 mph - N/A   Clear
5:55 AM 57.9 °F - 55.2 °F 91% 29.93 in 5.0 mi SE 3.5 mph - N/A   Clear
6:15 AM 58.1 °F - 55.2 °F 90% 29.93 in 4.0 mi Calm Calm - N/A   Clear
6:35 AM 58.6 °F - 55.8 °F 90% 29.93 in 5.0 mi East 3.5 mph - N/A   Clear
6:55 AM 61.7 °F - 57.7 °F 87% 29.94 in 7.0 mi East 3.5 mph - N/A   Clear
7:15 AM 62.6 °F - 57.4 °F 83% 29.94 in 7.0 mi East 5.8 mph - N/A   Clear
7:35 AM 63.5 °F - 57.6 °F 81% 29.93 in 10.0 mi ESE 6.9 mph - N/A   Clear
7:55 AM 64.8 °F - 58.3 °F 79% 29.94 in 10.0 mi SE 5.8 mph - N/A   Clear
8:15 AM 66.7 °F - 58.8 °F 76% 29.94 in 10.0 mi SE 6.9 mph - N/A   Clear
8:35 AM 69.3 °F - 59.2 °F 70% 29.94 in 10.0 mi SSE 8.1 mph - N/A   Clear
8:55 AM 71.6 °F - 59.2 °F 65% 29.94 in 10.0 mi SSE 8.1 mph - N/A   Clear
9:15 AM 72.5 °F - 59.4 °F 63% 29.94 in 10.0 mi South 8.1 mph - N/A   Clear
9:35 AM 74.3 °F - 59.0 °F 59% 29.94 in 10.0 mi SSE 6.9 mph - N/A   Clear
9:55 AM 75.9 °F - 58.3 °F 54% 29.94 in 10.0 mi SSE 11.5 mph - N/A   Clear
10:15 AM 77.0 °F - 57.6 °F 51% 29.93 in 10.0 mi South 9.2 mph - N/A   Scattered Clouds
10:35 AM 77.2 °F - 57.0 °F 50% 29.92 in 10.0 mi SSE 9.2 mph - N/A   Scattered Clouds
10:55 AM 77.9 °F - 57.4 °F 49% 29.92 in 10.0 mi SSE 11.5 mph - N/A   Scattered Clouds
11:15 AM 78.1 °F - 57.2 °F 49% 29.92 in 10.0 mi SSE 12.7 mph 17.3 mph N/A   Scattered Clouds
11:35 AM 78.6 °F - 57.2 °F 48% 29.92 in 10.0 mi South 13.8 mph - N/A   Mostly Cloudy
11:55 AM 79.7 °F - 56.5 °F 45% 29.92 in 10.0 mi South 8.1 mph - N/A   Mostly Cloudy
12:15 PM 79.0 °F - 56.7 °F 46% 29.91 in 10.0 mi South 8.1 mph - N/A   Overcast
12:35 PM 80.2 °F 80.4 °F 56.3 °F 44% 29.90 in 10.0 mi SE 11.5 mph 18.4 mph N/A   Overcast
12:55 PM 80.4 °F 80.5 °F 56.1 °F 43% 29.90 in 10.0 mi South 10.4 mph 17.3 mph N/A   Overcast
1:15 PM 82.4 °F 81.8 °F 56.1 °F 40% 29.89 in 10.0 mi SE 10.4 mph - N/A   Mostly Cloudy
1:35 PM 82.6 °F 81.8 °F 55.6 °F 39% 29.88 in 10.0 mi SE 11.5 mph - N/A   Mostly Cloudy
1:55 PM 83.8 °F 82.7 °F 55.0 °F 37% 29.86 in 10.0 mi SE 15.0 mph 24.2 mph N/A   Scattered Clouds
2:15 PM 84.9 °F 83.3 °F 53.8 °F 34% 29.86 in 10.0 mi South 13.8 mph 21.9 mph N/A   Scattered Clouds
2:35 PM 85.8 °F 84.2 °F 54.7 °F 34% 29.85 in 10.0 mi South 17.3 mph 20.7 mph N/A   Mostly Cloudy
2:55 PM 85.6 °F 84.0 °F 54.5 °F 34% 29.85 in 10.0 mi SSE 13.8 mph 20.7 mph N/A   Mostly Cloudy
3:15 PM 86.4 °F 84.7 °F 54.5 °F 34% 29.85 in 10.0 mi SSE 13.8 mph 20.7 mph N/A   Mostly Cloudy
3:35 PM 84.7 °F 83.3 °F 54.5 °F 35% 29.84 in 10.0 mi SSE 16.1 mph 20.7 mph N/A   Mostly Cloudy
3:55 PM 85.6 °F 84.1 °F 54.7 °F 35% 29.83 in 10.0 mi South 19.6 mph 23.0 mph N/A   Scattered Clouds
4:15 PM 85.3 °F 83.9 °F 55.6 °F 36% 29.83 in 10.0 mi SSE 19.6 mph - N/A   Mostly Cloudy
4:35 PM 84.9 °F 83.6 °F 55.0 °F 36% 29.83 in 10.0 mi SE 17.3 mph 24.2 mph N/A   Mostly Cloudy
4:55 PM 83.7 °F 82.8 °F 56.1 °F 39% 29.84 in 10.0 mi SSE 18.4 mph 24.2 mph N/A   Overcast
5:15 PM 84.6 °F 83.5 °F 56.1 °F 38% 29.84 in 10.0 mi SSE 18.4 mph 25.3 mph N/A   Overcast
5:35 PM 84.0 °F 82.9 °F 55.2 °F 37% 29.84 in 10.0 mi South 18.4 mph 24.2 mph N/A   Mostly Cloudy
5:55 PM 84.4 °F 83.2 °F 55.4 °F 37% 29.83 in 10.0 mi SSE 18.4 mph - N/A   Mostly Cloudy
6:15 PM 84.4 °F 83.2 °F 55.8 °F 37% 29.83 in 10.0 mi SSE 15.0 mph - N/A   Scattered Clouds
6:35 PM 83.1 °F 82.4 °F 56.3 °F 40% 29.82 in 10.0 mi SSE 15.0 mph - N/A   Mostly Cloudy
7:15 PM 82.8 °F 82.4 °F 57.7 °F 42% 29.81 in 10.0 mi SE 15.0 mph - N/A   Scattered Clouds
7:35 PM 81.9 °F 81.7 °F 57.6 °F 43% 29.79 in 10.0 mi SE 15.0 mph - N/A   Clear
8:15 PM 79.3 °F - 58.3 °F 48% 29.78 in 10.0 mi SE 15.0 mph - N/A   Clear
8:35 PM 78.1 °F - 59.0 °F 52% 29.79 in 10.0 mi SE 10.4 mph - N/A   Clear
8:55 PM 76.1 °F - 59.2 °F 56% 29.79 in 10.0 mi SE 8.1 mph - N/A   Clear
9:15 PM 75.0 °F - 59.4 °F 58% 29.80 in 10.0 mi SE 8.1 mph - N/A   Clear
9:35 PM 74.3 °F - 59.4 °F 60% 29.80 in 10.0 mi SE 8.1 mph - N/A   Clear
10:15 PM 74.8 °F - 59.9 °F 60% 29.79 in 10.0 mi ESE 11.5 mph - N/A   Scattered Clouds
10:55 PM 74.3 °F - 60.6 °F 62% 29.77 in 10.0 mi SE 13.8 mph 20.7 mph N/A   Clear
11:15 PM 73.8 °F - 60.8 °F 64% 29.76 in 10.0 mi SE 16.1 mph 23.0 mph N/A   Clear
11:35 PM 73.6 °F - 60.8 °F 64% 29.75 in 10.0 mi SE 13.8 mph 24.2 mph N/A   Clear
11:55 PM 73.0 °F - 60.4 °F 65% 29.75 in 10.0 mi SE 17.3 mph - N/A   Clear